sat.trackr.live / text

‹ back to catalog

STARLINK-36377

NORAD 67812 · 2026-032R

PAYLOAD ACTIVE UNKNOWN

§ Identity

Operator
Country
US
Launch date
2026-02-15
Launch site
AFWTR
Launch vehicle
Mass (kg)
RCS (m²)

Purposes: comms

External: N2YO · Heavens-Above · Gunter

§ Orbital elements

Epoch: 2026-09-19T22:41:05.322336Z

Period
93.91 min
Inclination
97.2865°
Eccentricity
0.0002084
Mean motion
15.33451337 rev/d
Perigee alt
464.1 km
Apogee alt
467.0 km
Semi-major
6,843.7 km
B*
4.9902e-4
RAAN
89.4100°
Arg perigee
87.6993°
Mean anomaly
272.4488°
Rev number
3,473

§ Raw data

STARLINK-363771 67812U 26032R   26262.94520049  .00016073  00000+0  49902-3 0  99912 67812  97.2865  89.4100 0002084  87.6993 272.4488 15.33451337 34738

JSON: /api/v1/satellites/67812 · /tle

For live sub-satellite position, see the globe view (requires WebGL).

§ Visibility from observer

Set your observer location to see the next 7 days of passes ≥ 10°. The values pass through the URL so the page stays shareable.

No JS? Fill the form by hand. The geolocation button needs JavaScript.